Time,TemperatureF,DewpointF,PressureIn,WindDirection,WindDirectionDegrees,WindSpeedMPH,WindSpeedGustMPH,Humidity,HourlyPrecipIn,Conditions,Clouds,dailyrainin,SoftwareType,DateUTC
2013-09-29 00:08:00,63.9,64.0,29.96,NNE,28,0.0,-999.0,100,-99.99,,,0.00,weatherlink.com 1.10,2013-09-28 21:08:00,
2013-09-29 00:23:00,63.7,64.0,29.96,NNE,28,0.0,-999.0,100,-99.99,,,0.00,weatherlink.com 1.10,2013-09-28 21:23:00,
2013-09-29 00:38:00,63.4,63.0,29.96,NNE,28,0.0,-999.0,100,-99.99,,,0.00,weatherlink.com 1.10,2013-09-28 21:38:00,
2013-09-29 00:53:00,63.4,63.0,29.96,NNE,28,0.0,-999.0,100,-99.99,,,0.00,weatherlink.com 1.10,2013-09-28 21:53:00,
2013-09-29 01:08:00,63.2,63.0,29.95,NNE,28,0.0,-999.0,100,-99.99,,,0.00,weatherlink.com 1.10,2013-09-28 22:08:00,
2013-09-29 01:23:00,63.4,63.0,29.96,NNE,28,0.0,-999.0,100,-99.99,,,0.00,weatherlink.com 1.10,2013-09-28 22:23:00,
2013-09-29 01:38:00,63.2,63.0,29.95,NNE,28,0.0,-999.0,100,-99.99,,,0.00,weatherlink.com 1.10,2013-09-28 22:38:00,
2013-09-29 01:53:00,63.1,63.0,29.96,NNE,28,0.0,-999.0,100,-99.99,,,0.00,weatherlink.com 1.10,2013-09-28 22:53:00,
2013-09-29 02:08:00,63.2,63.0,29.96,NNE,28,0.0,-999.0,100,-99.99,,,0.00,weatherlink.com 1.10,2013-09-28 23:08:00,
2013-09-29 02:23:00,63.1,63.0,29.96,NNE,28,0.0,-999.0,100,-99.99,,,0.00,weatherlink.com 1.10,2013-09-28 23:23:00,
2013-09-29 02:53:00,62.9,63.0,29.96,NNE,28,0.0,-999.0,100,-99.99,,,0.00,weatherlink.com 1.10,2013-09-28 23:53:00,
2013-09-29 03:08:00,62.9,63.0,29.95,NNE,28,0.0,-999.0,100,-99.99,,,0.00,weatherlink.com 1.10,2013-09-29 00:08:00,
2013-09-29 03:23:00,62.6,63.0,29.95,NNE,28,0.0,-999.0,100,-99.99,,,0.00,weatherlink.com 1.10,2013-09-29 00:23:00,
2013-09-29 03:38:00,62.6,63.0,29.95,NNE,28,0.0,-999.0,100,-99.99,,,0.00,weatherlink.com 1.10,2013-09-29 00:38:00,
2013-09-29 03:53:00,62.3,62.0,29.95,NNE,28,0.0,-999.0,100,-99.99,,,0.00,weatherlink.com 1.10,2013-09-29 00:53:00,
2013-09-29 04:08:00,62.3,62.0,29.95,NNE,28,0.0,-999.0,100,-99.99,,,0.00,weatherlink.com 1.10,2013-09-29 01:08:00,
2013-09-29 04:23:00,62.1,62.0,29.95,NNE,28,0.0,-999.0,100,-99.99,,,0.00,weatherlink.com 1.10,2013-09-29 01:23:00,
2013-09-29 04:38:00,62.1,62.0,29.95,NNE,28,0.0,-999.0,100,-99.99,,,0.00,weatherlink.com 1.10,2013-09-29 01:38:00,
2013-09-29 04:53:00,62.0,62.0,29.95,NNE,28,2.0,-999.0,100,-99.99,,,0.00,weatherlink.com 1.10,2013-09-29 01:53:00,
2013-09-29 05:08:00,61.6,62.0,29.95,NNE,28,0.0,-999.0,100,-99.99,,,0.00,weatherlink.com 1.10,2013-09-29 02:08:00,
2013-09-29 05:23:00,61.5,62.0,29.95,NNE,28,0.0,-999.0,100,-99.99,,,0.00,weatherlink.com 1.10,2013-09-29 02:23:00,
2013-09-29 05:38:00,61.3,61.0,29.95,NNE,28,0.0,-999.0,100,-99.99,,,0.00,weatherlink.com 1.10,2013-09-29 02:38:00,
2013-09-29 05:53:00,61.3,61.0,29.95,NNE,28,0.0,-999.0,100,-99.99,,,0.00,weatherlink.com 1.10,2013-09-29 02:53:00,
2013-09-29 06:08:00,61.0,61.0,29.95,NNE,28,0.0,-999.0,100,-99.99,,,0.00,weatherlink.com 1.10,2013-09-29 03:08:00,
2013-09-29 06:23:00,61.0,61.0,29.95,NNE,28,0.0,-999.0,100,-99.99,,,0.00,weatherlink.com 1.10,2013-09-29 03:23:00,
2013-09-29 06:38:00,61.0,61.0,29.95,NNE,28,0.0,-999.0,100,-99.99,,,0.00,weatherlink.com 1.10,2013-09-29 03:38:00,
2013-09-29 06:53:00,60.9,61.0,29.96,NNE,28,0.0,-999.0,100,-99.99,,,0.00,weatherlink.com 1.10,2013-09-29 03:53:00,
2013-09-29 07:08:00,60.9,61.0,29.96,NNE,28,0.0,-999.0,100,-99.99,,,0.00,weatherlink.com 1.10,2013-09-29 04:08:00,
2013-09-29 07:24:00,61.0,61.0,29.96,NNE,28,0.0,-999.0,100,-99.99,,,0.00,weatherlink.com 1.10,2013-09-29 04:24:00,
2013-09-29 07:39:00,61.6,62.0,29.96,NNE,28,0.0,-999.0,100,-99.99,,,0.00,weatherlink.com 1.10,2013-09-29 04:39:00,
2013-09-29 07:54:00,62.4,62.0,29.96,NNE,28,0.0,-999.0,100,-99.99,,,0.00,weatherlink.com 1.10,2013-09-29 04:54:00,
2013-09-29 08:09:00,63.4,63.0,29.96,NNE,28,0.0,-999.0,100,-99.99,,,0.00,weatherlink.com 1.10,2013-09-29 05:09:00,
2013-09-29 08:24:00,64.0,64.0,29.96,NNE,28,0.0,-999.0,100,-99.99,,,0.00,weatherlink.com 1.10,2013-09-29 05:24:00,
2013-09-29 08:39:00,64.2,64.0,29.97,NE,35,5.0,-999.0,100,-99.99,,,0.00,weatherlink.com 1.10,2013-09-29 05:39:00,
2013-09-29 08:54:00,64.5,65.0,29.97,NE,45,6.0,-999.0,100,-99.99,,,0.00,weatherlink.com 1.10,2013-09-29 05:54:00,
2013-09-29 09:09:00,65.2,65.0,29.97,NE,42,2.0,-999.0,100,-99.99,,,0.00,weatherlink.com 1.10,2013-09-29 06:09:00,
2013-09-29 09:24:00,66.0,66.0,29.97,ENE,76,5.0,-999.0,100,-99.99,,,0.00,weatherlink.com 1.10,2013-09-29 06:24:00,
2013-09-29 09:39:00,66.1,66.0,29.97,NE,51,5.0,-999.0,100,-99.99,,,0.00,weatherlink.com 1.10,2013-09-29 06:39:00,
2013-09-29 09:54:00,67.1,67.0,29.97,NE,54,5.0,-999.0,100,-99.99,,,0.00,weatherlink.com 1.10,2013-09-29 06:54:00,
2013-09-29 10:09:00,68.1,68.0,29.97,NE,40,6.0,-999.0,100,-99.99,,,0.00,weatherlink.com 1.10,2013-09-29 07:09:00,
2013-09-29 10:24:00,68.3,68.0,29.97,NNE,24,0.0,-999.0,100,-99.99,,,0.00,weatherlink.com 1.10,2013-09-29 07:24:00,
2013-09-29 10:39:00,68.9,69.0,29.97,NNE,27,0.0,-999.0,100,-99.99,,,0.00,weatherlink.com 1.10,2013-09-29 07:39:00,
2013-09-29 10:54:00,70.1,70.0,29.97,NE,35,0.0,-999.0,100,-99.99,,,0.00,weatherlink.com 1.10,2013-09-29 07:54:00,
2013-09-29 11:09:00,70.3,70.0,29.97,NE,42,1.0,-999.0,100,-99.99,,,0.00,weatherlink.com 1.10,2013-09-29 08:09:00,
2013-09-29 11:24:00,70.6,71.0,29.96,East,80,0.0,-999.0,100,-99.99,,,0.00,weatherlink.com 1.10,2013-09-29 08:24:00,
2013-09-29 11:39:00,71.3,71.0,29.96,ENE,72,0.0,-999.0,100,-99.99,,,0.00,weatherlink.com 1.10,2013-09-29 08:39:00,
2013-09-29 11:54:00,72.0,72.0,29.95,NW,318,0.0,-999.0,100,-99.99,,,0.00,weatherlink.com 1.10,2013-09-29 08:54:00,
2013-09-29 12:09:00,73.5,74.0,29.95,ESE,103,3.0,-999.0,100,-99.99,,,0.00,weatherlink.com 1.10,2013-09-29 09:09:00,
2013-09-29 12:24:00,73.5,74.0,29.95,North,8,0.0,-999.0,100,-99.99,,,0.00,weatherlink.com 1.10,2013-09-29 09:24:00,
2013-09-29 12:39:00,74.6,75.0,29.95,NE,48,0.0,-999.0,100,-99.99,,,0.00,weatherlink.com 1.10,2013-09-29 09:39:00,
2013-09-29 12:54:00,74.6,75.0,29.94,ENE,61,3.0,-999.0,100,-99.99,,,0.00,weatherlink.com 1.10,2013-09-29 09:54:00,
2013-09-29 13:09:00,74.9,75.0,29.94,NE,35,0.0,-999.0,100,-99.99,,,0.00,weatherlink.com 1.10,2013-09-29 10:09:00,
2013-09-29 13:24:00,76.0,76.0,29.94,NE,49,2.0,-999.0,100,-99.99,,,0.00,weatherlink.com 1.10,2013-09-29 10:24:00,
2013-09-29 13:39:00,75.1,75.0,29.93,ENE,78,6.0,-999.0,100,-99.99,,,0.00,weatherlink.com 1.10,2013-09-29 10:39:00,
2013-09-29 13:54:00,73.7,74.0,29.92,East,82,3.0,-999.0,100,-99.99,,,0.00,weatherlink.com 1.10,2013-09-29 10:54:00,
2013-09-29 14:09:00,74.6,75.0,29.92,NE,41,0.0,-999.0,100,-99.99,,,0.00,weatherlink.com 1.10,2013-09-29 11:09:00,
2013-09-29 14:24:00,74.9,75.0,29.91,NE,40,5.0,-999.0,100,-99.99,,,0.00,weatherlink.com 1.10,2013-09-29 11:24:00,
2013-09-29 14:39:00,75.6,76.0,29.91,East,92,1.0,-999.0,100,-99.99,,,0.00,weatherlink.com 1.10,2013-09-29 11:39:00,
2013-09-29 14:54:00,77.4,77.0,29.90,SSW,206,5.0,-999.0,100,-99.99,,,0.00,weatherlink.com 1.10,2013-09-29 11:54:00,
2013-09-29 15:09:00,78.3,78.0,29.90,NE,52,0.0,-999.0,100,-99.99,,,0.00,weatherlink.com 1.10,2013-09-29 12:09:00,
2013-09-29 15:24:00,78.8,79.0,29.90,ESE,107,0.0,-999.0,100,-99.99,,,0.00,weatherlink.com 1.10,2013-09-29 12:24:00,
2013-09-29 15:39:00,77.9,78.0,29.90,ESE,109,3.0,-999.0,100,-99.99,,,0.00,weatherlink.com 1.10,2013-09-29 12:39:00,
2013-09-29 15:54:00,77.6,78.0,29.89,ESE,121,0.0,-999.0,100,-99.99,,,0.00,weatherlink.com 1.10,2013-09-29 12:54:00,
2013-09-29 16:09:00,77.2,77.0,29.89,NNE,18,2.0,-999.0,100,-99.99,,,0.00,weatherlink.com 1.10,2013-09-29 13:09:00,
2013-09-29 16:24:00,74.9,75.0,29.89,NNE,18,8.0,-999.0,100,-99.99,,,0.00,weatherlink.com 1.10,2013-09-29 13:24:00,
2013-09-29 16:39:00,74.6,75.0,29.89,NNE,31,5.0,-999.0,100,-99.99,,,0.00,weatherlink.com 1.10,2013-09-29 13:39:00,
2013-09-29 16:54:00,74.2,74.0,29.88,NE,45,3.0,-999.0,100,-99.99,,,0.00,weatherlink.com 1.10,2013-09-29 13:54:00,
2013-09-29 17:09:00,74.0,74.0,29.88,NE,38,5.0,-999.0,100,-99.99,,,0.00,weatherlink.com 1.10,2013-09-29 14:09:00,
2013-09-29 17:24:00,73.7,74.0,29.88,NE,38,8.0,-999.0,100,-99.99,,,0.00,weatherlink.com 1.10,2013-09-29 14:24:00,
2013-09-29 17:39:00,73.2,73.0,29.88,NE,54,4.0,-999.0,100,-99.99,,,0.00,weatherlink.com 1.10,2013-09-29 14:39:00,
2013-09-29 17:54:00,72.8,73.0,29.88,NNE,32,3.0,-999.0,100,-99.99,,,0.00,weatherlink.com 1.10,2013-09-29 14:54:00,
2013-09-29 18:09:00,72.3,72.0,29.88,NNE,28,5.0,-999.0,100,-99.99,,,0.00,weatherlink.com 1.10,2013-09-29 15:09:00,
2013-09-29 18:24:00,71.5,72.0,29.88,NNE,30,5.0,-999.0,100,-99.99,,,0.00,weatherlink.com 1.10,2013-09-29 15:24:00,
2013-09-29 18:39:00,70.9,71.0,29.89,NE,44,5.0,-999.0,100,-99.99,,,0.00,weatherlink.com 1.10,2013-09-29 15:39:00,
2013-09-29 18:54:00,70.3,70.0,29.88,NE,40,5.0,-999.0,100,-99.99,,,0.00,weatherlink.com 1.10,2013-09-29 15:54:00,
2013-09-29 19:09:00,69.6,70.0,29.88,NE,35,5.0,-999.0,100,-99.99,,,0.00,weatherlink.com 1.10,2013-09-29 16:09:00,
2013-09-29 19:24:00,69.1,69.0,29.88,NE,34,5.0,-999.0,100,-99.99,,,0.00,weatherlink.com 1.10,2013-09-29 16:24:00,
2013-09-29 19:39:00,68.4,68.0,29.88,NE,37,6.0,-999.0,100,-99.99,,,0.00,weatherlink.com 1.10,2013-09-29 16:39:00,
2013-09-29 19:54:00,67.9,68.0,29.88,ENE,58,6.0,-999.0,100,-99.99,,,0.00,weatherlink.com 1.10,2013-09-29 16:54:00,
2013-09-29 20:10:00,67.6,68.0,29.88,NE,54,4.0,-999.0,100,-99.99,,,0.00,weatherlink.com 1.10,2013-09-29 17:10:00,
2013-09-29 20:25:00,67.3,67.0,29.88,NE,54,0.0,-999.0,100,-99.99,,,0.00,weatherlink.com 1.10,2013-09-29 17:25:00,
2013-09-29 20:40:00,67.1,67.0,29.89,ENE,65,0.0,-999.0,100,-99.99,,,0.00,weatherlink.com 1.10,2013-09-29 17:40:00,
2013-09-29 20:55:00,66.8,67.0,29.88,ENE,65,0.0,-999.0,100,-99.99,,,0.00,weatherlink.com 1.10,2013-09-29 17:55:00,
2013-09-29 21:10:00,66.4,66.0,29.88,ENE,65,3.0,-999.0,100,-99.99,,,0.00,weatherlink.com 1.10,2013-09-29 18:10:00,
2013-09-29 21:25:00,66.1,66.0,29.88,ENE,65,2.0,-999.0,100,-99.99,,,0.00,weatherlink.com 1.10,2013-09-29 18:25:00,
2013-09-29 21:40:00,65.8,66.0,29.88,NE,40,3.0,-999.0,100,-99.99,,,0.00,weatherlink.com 1.10,2013-09-29 18:40:00,
2013-09-29 21:55:00,65.6,66.0,29.88,NE,40,0.0,-999.0,100,-99.99,,,0.00,weatherlink.com 1.10,2013-09-29 18:55:00,
2013-09-29 22:10:00,65.6,66.0,29.88,NE,40,0.0,-999.0,100,-99.99,,,0.00,weatherlink.com 1.10,2013-09-29 19:10:00,
2013-09-29 22:25:00,65.3,65.0,29.88,NE,40,0.0,-999.0,100,-99.99,,,0.00,weatherlink.com 1.10,2013-09-29 19:25:00,
2013-09-29 22:40:00,65.2,65.0,29.88,NE,40,5.0,-999.0,100,-99.99,,,0.00,weatherlink.com 1.10,2013-09-29 19:40:00,
2013-09-29 22:55:00,64.8,65.0,29.89,NE,34,6.0,-999.0,100,-99.99,,,0.00,weatherlink.com 1.10,2013-09-29 19:55:00,
2013-09-29 23:10:00,64.5,65.0,29.89,NNE,20,5.0,-999.0,100,-99.99,,,0.00,weatherlink.com 1.10,2013-09-29 20:10:00,
2013-09-29 23:25:00,64.0,64.0,29.89,NE,45,6.0,-999.0,100,-99.99,,,0.00,weatherlink.com 1.10,2013-09-29 20:25:00,
2013-09-29 23:40:00,63.7,64.0,29.89,NNE,18,7.0,-999.0,100,-99.99,,,0.00,weatherlink.com 1.10,2013-09-29 20:40:00,
2013-09-29 23:55:00,63.9,64.0,29.89,East,82,8.0,-999.0,100,-99.99,,,0.00,weatherlink.com 1.10,2013-09-29 20:55:00,